User: anonymous   Login
Location: Unspecified
(0.0000°N, 0.0000°E)
Time: 06:57:54
(UTC+00:00)
Language:

STPSAT 1 - Orbit

View from above orbital plane
View from above orbital plane
View from above satellite
View from above satellite

Ground track
Ground track

The orbit data is extracted from the following two-line orbital elements,

1 30775U 07006D   17202.62073095 +.00001118 +00000-0 +45707-4 0  9997
2 30775 035.4290 276.2074 0003768 245.9504 114.0825 15.25031834572836
Epoch (UTC): 21 July 2017 14:53:51
Eccentricity: 0.0003768
inclination: 35.4290°
perigee height: 488 km
apogee height: 493 km
right ascension of ascending node: 276.2074°
argument of perigee: 245.9504°
revolutions per day: 15.25031834
mean anomaly at epoch: 114.0825°
orbit number at epoch: 57283

The dashed part of the orbit path shows where the satellite is in the earth's shadow,  

DLR